Main page
METAR-TAF:

METAR-TAF

Airports :

Chapecó Airport

Chapecó, Santa Catarina, Brazil

latitude: 27-08-02S, longitude: 052-39-43W, elevation: 654 m

Current weather observation

The report was made 7 hours and 4 minutes ago, at 21:00 UTC
Calm wind
Temperature 25°C
Humidity 69%
Pressure 1013 hPa
Visibility 10 km or more
Few clouds at a height of 3000 ft

METAR: SBCH 192100Z 00000KT 9999 FEW030 25/19 Q1013

Time: 01:04 (04:04 UTC)


TAF: missing

Weather observations and forecasts of more than 4000 airports (METAR and TAF reports).

The available stations are represented by yellow and red dots on the map.

Hover mouse over dot to see the name of the station.

Then click to see weather observations and forecasts.

To change the map : click on the green buttons with a black cross to zoom in, on the green button with a dash to zoom out, or on the green arrows for adjacent maps.


METAR-TAF: